Weather History for Andover, NJ

Change the Weather History Date:

Monday, October 24, 2011

  Actual Average (KFWN) Record (KFWN)
Temperature  
Mean Temperature 49 °F -  
Max Temperature 59 °F 62 °F 83 °F (1963)
Min Temperature 39 °F 33 °F 18 °F (1969)
Degree Days  
Heating Degree Days 16    
Moisture  
Dew Point 45 °F    
Average Humidity 84    
Maximum Humidity 97    
Minimum Humidity 65    
Precipitation  
Precipitation 0.00 in - - ()
Sea Level Pressure  
Sea Level Pressure 30.06 in    
Wind  
Wind Speed 1 mph (SSW)    
Max Wind Speed 8 mph    
Max Gust Speed -    
Averages and records for this station are not official NWS values.
T = Trace of Precipitation, MM = Missing Value Source: NWS Daily Summary

Daily Weather History Graph

Daily Weather History Graph

Search for Another Location

Airport:

Trip Planner

Search our weather history database for the weather conditions in past years. The results will help you decide how hot, cold, wet, or windy it might be!

Date:

Astronomy

Oct. 24, 2011 Rise Set
Actual Time 7:20 AM EDT 6:05 PM EDT
Civil Twilight 6:52 AM EDT 6:33 PM EDT
Nautical Twilight 6:19 AM EDT 7:05 PM EDT
Astronomical Twilight 5:48 AM EDT 7:37 PM EDT
Moon 4:34 AM EDT (10/24) 4:29 PM EDT (10/24)
Length of Visible Light 11h 41m
Length of Day
10h 45m
Waning Crescent, 7% of the Moon is Illuminated
Oct 24
Waning Crescent
Oct 26
New
Nov 2
First Quarter
Nov 10
Full
Nov 18
Last Quarter

Hourly Weather History & Observations

Time (EDT) Temp. Dew Point Humidity Pressure Visibility Wind Dir Wind Speed Gust Speed Precip Events Conditions
12:54 AM 42.1 °F 41.0 °F 96% 30.14 in - Calm Calm - N/A   Unknown
1:54 AM 42.1 °F 39.9 °F 92% 30.14 in - Calm Calm - N/A   Unknown
2:54 AM 41.0 °F 39.0 °F 93% 30.13 in - Calm Calm - N/A   Unknown
3:54 AM 39.9 °F 39.0 °F 97% 30.12 in - Calm Calm - N/A   Unknown
4:54 AM 39.9 °F 39.0 °F 97% 30.13 in - Calm Calm - N/A   Unknown
5:54 AM 39.9 °F 39.0 °F 97% 30.12 in - Calm Calm - N/A   Unknown
6:54 AM 41.0 °F 39.0 °F 93% 30.11 in - Calm Calm - N/A   Unknown
7:54 AM 42.1 °F 41.0 °F 96% 30.12 in - Calm Calm - N/A   Unknown
8:54 AM 46.0 °F 45.0 °F 96% 30.12 in - Calm Calm - N/A   Unknown
9:54 AM 53.1 °F 46.9 °F 80% 30.11 in - Variable 4.6 mph - N/A   Unknown
10:54 AM 55.9 °F 46.0 °F 69% 30.10 in - SW 6.9 mph - N/A   Unknown
11:54 AM 57.0 °F 46.0 °F 67% 30.09 in - Calm Calm - N/A   Unknown
12:54 PM 57.9 °F 46.0 °F 65% 30.06 in - SSW 5.8 mph - N/A   Unknown
1:54 PM 57.9 °F 46.9 °F 67% 30.04 in - SSW 6.9 mph - N/A   Unknown
2:54 PM 57.9 °F 48.0 °F 70% 30.01 in - SSW 8.1 mph - N/A   Unknown
3:54 PM 59.0 °F 48.0 °F 67% 30.01 in - SW 8.1 mph - N/A   Unknown
4:54 PM 57.9 °F 48.0 °F 70% 29.99 in - Variable 4.6 mph - N/A   Unknown
5:54 PM 57.0 °F 48.0 °F 72% 29.98 in - Calm Calm - N/A   Unknown
6:54 PM 54.0 °F 48.9 °F 83% 29.99 in - Calm Calm - N/A   Unknown
7:54 PM 54.0 °F 50.0 °F 86% 29.99 in - Calm Calm - N/A   Unknown
8:54 PM 53.1 °F 48.9 °F 86% 29.99 in - Calm Calm - N/A   Unknown
9:54 PM 53.1 °F 50.0 °F 89% 29.99 in - Calm Calm - N/A   Unknown
10:54 PM 54.0 °F 50.0 °F 86% 29.99 in - Calm Calm - N/A   Unknown
11:54 PM 50.0 °F 48.0 °F 93% 29.99 in - Calm Calm - N/A   Unknown